Location: Oberkirch
(48.5323°N, 8.0787°E)
Time: 18:46:50
(UTC+00:00)

Transit 4A - Visible Passes

Search period start: 18 February 2026 00:00
Search period end: 28 February 2026 00:00
Orbit: 865 x 976 km, 66.8° (Epoch: 17 February)

Date Brightness Start Highest point End Pass type
(mag) Time Alt. Az. Time Alt. Az. Time Alt. Az.
18 Feb 9.8 02:19:40 23° E 02:19:40 23° E 02:22:49 10° NE visible
18 Feb 7.7 04:03:09 61° W 04:03:46 65° NW 04:09:49 10° NNE visible
18 Feb 9.3 05:46:51 10° WNW 05:51:19 21° NNW 05:55:54 10° NNE visible
19 Feb 9.5 02:28:28 29° ENE 02:28:28 29° ENE 02:31:56 10° NE visible
19 Feb 8.0 04:11:57 47° WNW 04:12:40 49° NW 04:18:33 10° NNE visible
19 Feb 9.5 05:56:29 10° WNW 06:00:31 18° NNW 06:04:39 10° NNE visible
20 Feb 9.2 02:37:12 36° ENE 02:37:12 36° ENE 02:40:54 10° NE visible
20 Feb 8.4 04:20:41 36° WNW 04:21:37 38° NW 04:27:16 10° NNE visible
21 Feb 8.9 02:45:53 41° NE 02:45:53 41° NE 02:49:46 10° NE visible
21 Feb 8.8 04:29:21 27° WNW 04:30:38 30° NW 04:35:57 10° NNE visible
22 Feb 10.7 01:11:02 10° ENE 01:11:02 10° ENE 01:11:06 10° ENE visible
22 Feb 8.7 02:54:31 44° NNE 02:54:31 44° NNE 02:58:35 10° NE visible
22 Feb 9.1 04:37:59 21° NW 04:39:44 24° NNW 04:44:40 10° NNE visible
23 Feb 10.5 01:19:38 13° ENE 01:19:38 13° ENE 01:20:26 10° NE visible
23 Feb 8.7 03:03:06 43° N 03:03:06 43° N 03:07:20 10° NNE visible
23 Feb 9.4 04:46:34 17° NW 04:48:55 20° NNW 04:53:24 10° NNE visible
24 Feb 10.3 01:28:11 16° NE 01:28:11 16° NE 01:29:30 10° NE visible
24 Feb 8.7 03:11:39 39° N 03:11:39 39° N 03:16:03 10° NNE visible
24 Feb 9.6 04:55:07 13° NW 04:58:08 18° NNW 05:02:11 10° NNE visible
25 Feb 10.1 01:36:43 20° NE 01:36:43 20° NE 01:38:27 10° NE visible
25 Feb 8.9 03:20:11 33° NNW 03:20:11 33° NNW 03:24:46 10° NNE visible
25 Feb 9.8 05:03:51 10° NW 05:07:25 16° NNW 05:11:03 10° NNE visible
26 Feb 9.9 01:45:12 22° NE 01:45:12 22° NE 01:47:18 10° NE visible
26 Feb 9.1 03:28:40 28° NNW 03:28:40 28° NNW 03:33:27 10° NNE visible
26 Feb 9.9 05:13:29 10° NW 05:16:44 15° N 05:20:02 10° NNE visible
27 Feb 9.7 01:53:41 25° NNE 01:53:41 25° NNE 01:56:05 10° NNE visible
27 Feb 9.3 03:37:08 23° NNW 03:37:20 23° NNW 03:42:10 10° NNE visible
27 Feb 9.9 05:22:59 10° NNW 05:26:04 14° N 05:29:12 10° NNE visible
